| time (UTC) | temp C | wind direction | speed KPH | gust KPH | rain 1hr cm | rain 24hr cm | rain mn cm | humidity % | barometer mb |
| 20260904133111 | 12 | 241 | 9.7 | 20.9 | 0.00 | 0.33 | 0.28 | 71 | 1031.8 |
| 20260904131555 | 12 | 174 | 12.9 | 24.1 | 0.00 | 0.33 | 0.28 | 71 | 1031.7 |
| 20260904130055 | 12 | 236 | 6.4 | 17.7 | 0.00 | 0.33 | 0.28 | 72 | 1031.7 |
| 20260904124605 | 12 | 252 | 6.4 | 16.1 | 0.00 | 0.33 | 0.28 | 72 | 1031.9 |
| 20260904123109 | 13 | 291 | 6.4 | 14.5 | 0.00 | 0.33 | 0.28 | 70 | 1031.8 |
| 20260904121549 | 13 | 233 | 4.8 | 19.3 | 0.00 | 0.33 | 0.28 | 71 | 1031.9 |
| 20260904120048 | 13 | 207 | 8.0 | 20.9 | 0.00 | 0.33 | 0.28 | 72 | 1032.0 |
| 20260904114556 | 12 | 224 | 11.3 | 22.5 | 0.00 | 0.33 | 0.28 | 72 | 1032.1 |
| 20260904113101 | 13 | 209 | 8.0 | 17.7 | 0.00 | 0.33 | 0.28 | 69 | 1032.3 |
| 20260904111604 | 13 | 190 | 8.0 | 17.7 | 0.00 | 0.33 | 0.28 | 70 | 1032.5 |
| 20260904110109 | 12 | 277 | 8.0 | 25.7 | 0.00 | 0.33 | 0.28 | 71 | 1032.7 |
| 20260904104601 | 12 | 238 | 11.3 | 22.5 | 0.00 | 0.33 | 0.28 | 71 | 1033.0 |
| 20260904103053 | 12 | 251 | 9.7 | 19.3 | 0.00 | 0.33 | 0.28 | 72 | 1033.4 |
| 20260904101603 | 13 | 337 | 8.0 | 20.9 | 0.00 | 0.33 | 0.28 | 73 | 1033.2 |
| 20260904100101 | 12 | 261 | 12.9 | 24.1 | 0.00 | 0.33 | 0.28 | 76 | 1033.1 |
| 20260904094558 | 12 | 254 | 9.7 | 27.4 | 0.00 | 0.33 | 0.28 | 77 | 1033.6 |
| 20260904093111 | 12 | 223 | 11.3 | 33.8 | 0.00 | 0.33 | 0.28 | 78 | 1033.4 |
| 20260904091548 | 11 | 14 | 12.9 | 24.1 | 0.00 | 0.33 | 0.28 | 83 | 1033.5 |
| 20260904090047 | 11 | 13 | 12.9 | 25.7 | 0.00 | 0.33 | 0.28 | 84 | 1033.6 |
| 20260904084552 | 10 | 14 | 9.7 | 29.0 | 0.00 | 0.33 | 0.28 | 87 | 1033.4 |
| 20260904083052 | 10 | 14 | 11.3 | 24.1 | 0.00 | 0.33 | 0.28 | 91 | 1033.4 |
| 20260904081559 | 10 | 274 | 11.3 | 20.9 | 0.03 | 0.33 | 0.28 | 93 | 1033.3 |
| 20260904074555 | 10 | 241 | 9.7 | 29.0 | 0.05 | 0.33 | 0.25 | 93 | 1033.4 |
| 20260904073049 | 10 | 229 | 11.3 | 25.7 | 0.08 | 0.33 | 0.25 | 93 | 1033.2 |
| 20260904071550 | 10 | 13 | 11.3 | 19.3 | 0.05 | 0.30 | 0.23 | 93 | 1033.0 |
| 20260904070050 | 10 | 205 | 12.9 | 25.7 | 0.05 | 0.28 | 0.20 | 93 | 1032.8 |
| 20260904064553 | 10 | 189 | 6.4 | 17.7 | 0.03 | 0.28 | 0.18 | 93 | 1032.5 |
| 20260904063048 | 10 | 255 | 11.3 | 17.7 | 0.03 | 0.25 | 0.18 | 93 | 1032.3 |
| 20260904061552 | 10 | 257 | 8.0 | 20.9 | 0.03 | 0.25 | 0.18 | 93 | 1032.1 |
| 20260904060048 | 10 | 234 | 9.7 | 17.7 | 0.00 | 0.23 | 0.15 | 92 | 1031.7 |
| 20260904054557 | 10 | 265 | 9.7 | 20.9 | 0.00 | 0.23 | 0.15 | 92 | 1031.5 |
| 20260904053101 | 10 | 17 | 14.5 | 25.7 | 0.00 | 0.20 | 0.13 | 92 | 1031.2 |
| 20260904051558 | 10 | 14 | 9.7 | 19.3 | 0.00 | 0.20 | 0.13 | 92 | 1031.1 |
| 20260904050056 | 11 | 13 | 8.0 | 41.8 | 0.00 | 0.20 | 0.13 | 90 | 1030.7 |
| 20260904044550 | 11 | 15 | 11.3 | 20.9 | 0.00 | 0.20 | 0.13 | 91 | 1030.1 |
| 20260904043049 | 11 | 17 | 9.7 | 25.7 | 0.00 | 0.20 | 0.13 | 91 | 1030.0 |
| 20260904041559 | 11 | 15 | 8.0 | 19.3 | 0.00 | 0.20 | 0.13 | 91 | 1029.8 |
| 20260904040059 | 11 | 13 | 9.7 | 20.9 | 0.00 | 0.20 | 0.13 | 91 | 1029.4 |
| 20260904034557 | 11 | 15 | 11.3 | 30.6 | 0.00 | 0.20 | 0.13 | 92 | 1029.4 |
| 20260904033048 | 11 | 15 | 9.7 | 27.4 | 0.00 | 0.20 | 0.13 | 92 | 1029.2 |
| 20260904031549 | 11 | 13 | 8.0 | 30.6 | 0.00 | 0.20 | 0.13 | 92 | 1028.9 |
| 20260904030059 | 11 | 15 | 11.3 | 24.1 | 0.00 | 0.20 | 0.13 | 92 | 1028.5 |
| 20260904024549 | 11 | 15 | 11.3 | 20.9 | 0.00 | 0.20 | 0.13 | 93 | 1028.3 |
| 20260904023054 | 11 | 18 | 11.3 | 19.3 | 0.03 | 0.20 | 0.13 | 93 | 1028.2 |
| 20260904021600 | 11 | 17 | 9.7 | 25.7 | 0.00 | 0.18 | 0.10 | 93 | 1027.9 |
| 20260904020048 | 11 | 186 | 8.0 | 16.1 | 0.00 | 0.18 | 0.10 | 93 | 1027.4 |
| 20260904014553 | 11 | 80 | 8.0 | 17.7 | 0.03 | 0.18 | 0.10 | 93 | 1027.4 |
| 20260904013047 | 11 | 233 | 11.3 | 22.5 | 0.03 | 0.18 | 0.08 | 93 | 1027.5 |
| 20260904011611 | 11 | 234 | 9.7 | 19.3 | 0.03 | 0.18 | 0.08 | 93 | 1027.5 |
| 20260904010108 | 11 | 222 | 8.0 | 14.5 | 0.08 | 0.18 | 0.08 | 93 | 1027.1 |
| 20260904004550 | 11 | 240 | 8.0 | 20.9 | 0.08 | 0.15 | 0.08 | 93 | 1027.2 |
| 20260904003048 | 11 | 212 | 9.7 | 29.0 | 0.05 | 0.13 | 0.05 | 93 | 1027.0 |
| 20260904001547 | 11 | 249 | 9.7 | 19.3 | 0.05 | 0.13 | 0.05 | 93 | 1026.9 |
| 20260904000100 | 11 | 235 | 4.8 | 14.5 | 0.00 | 0.08 | 0.00 | 93 | 1026.8 |
| 20260903234604 | 11 | 227 | 8.0 | 16.1 | 0.00 | 0.08 | 0.00 | 92 | 1026.9 |
| 20260903233057 | 12 | 17 | 8.0 | 16.1 | 0.00 | 0.08 | 0.00 | 89 | 1026.7 |
| 20260903231558 | 12 | 16 | 4.8 | 12.9 | 0.00 | 0.08 | 0.00 | 88 | 1027.1 |
| 20260903230057 | 12 | 15 | 4.8 | 17.7 | 0.00 | 0.08 | 0.00 | 88 | 1027.1 |
| 20260903224602 | 12 | 15 | 6.4 | 17.7 | 0.00 | 0.08 | 0.00 | 88 | 1026.3 |
| 20260903223045 | 12 | 15 | 8.0 | 17.7 | 0.00 | 0.08 | 0.00 | 87 | 1026.6 |
| 20260903221556 | 12 | 17 | 9.7 | 17.7 | 0.00 | 0.08 | 0.00 | 88 | 1026.0 |
| 20260903220124 | 12 | 15 | 8.0 | 19.3 | 0.00 | 0.08 | 0.00 | 88 | 1025.7 |
| 20260903214550 | 12 | 15 | 6.4 | 14.5 | 0.00 | 0.08 | 0.08 | 89 | 1025.5 |
| 20260903213104 | 12 | 14 | 4.8 | 8.0 | 0.00 | 0.08 | 0.08 | 89 | 1026.0 |
| 20260903211601 | 12 | 15 | 6.4 | 19.3 | 0.00 | 0.08 | 0.08 | 88 | 1025.1 |
| 20260903210105 | 12 | 15 | 8.0 | 16.1 | 0.00 | 0.08 | 0.08 | 88 | 1024.7 |
| 20260903204552 | 12 | 15 | 9.7 | 25.7 | 0.00 | 0.08 | 0.08 | 87 | 1025.3 |
| 20260903203109 | 12 | 15 | 8.0 | 20.9 | 0.00 | 0.08 | 0.08 | 88 | 1025.0 |
| 20260903201553 | 12 | 14 | 8.0 | 19.3 | 0.00 | 0.08 | 0.08 | 89 | 1024.9 |
| 20260903200050 | 12 | 17 | 12.9 | 22.5 | 0.00 | 0.08 | 0.08 | 90 | 1024.1 |
| 20260903194554 | 12 | 15 | 8.0 | 16.1 | 0.00 | 0.08 | 0.08 | 91 | 1023.1 |
| 20260903193100 | 12 | 14 | 9.7 | 19.3 | 0.00 | 0.08 | 0.08 | 90 | 1023.0 |
| 20260903191554 | 12 | 15 | 6.4 | 14.5 | 0.00 | 0.08 | 0.08 | 88 | 1023.5 |
| 20260903190058 | 12 | 192 | 4.8 | 16.1 | 0.00 | 0.08 | 0.08 | 89 | 1023.4 |
| 20260903184557 | 12 | 217 | 8.0 | 25.7 | 0.00 | 0.08 | 0.08 | 88 | 1022.8 |
| 20260903183055 | 12 | 254 | 6.4 | 17.7 | 0.00 | 0.08 | 0.08 | 89 | 1022.7 |
| 20260903181549 | 12 | 230 | 9.7 | 19.3 | 0.00 | 0.08 | 0.08 | 90 | 1022.5 |
| 20260903180054 | 12 | 186 | 9.7 | 17.7 | 0.00 | 0.08 | 0.08 | 89 | 1022.1 |
| 20260903174558 | 12 | 118 | 8.0 | 16.1 | 0.00 | 0.08 | 0.08 | 89 | 1021.8 |
| 20260903173055 | 12 | 17 | 9.7 | 19.3 | 0.00 | 0.08 | 0.08 | 90 | 1021.6 |
| 20260903171601 | 13 | 15 | 11.3 | 25.7 | 0.03 | 0.08 | 0.08 | 89 | 1021.0 |
| 20260903170046 | 13 | 13 | 12.9 | 25.7 | 0.03 | 0.08 | 0.08 | 89 | 1020.6 |
| 20260903164602 | 13 | 13 | 12.9 | 22.5 | 0.05 | 0.08 | 0.08 | 90 | 1020.3 |
| 20260903163101 | 13 | 15 | 11.3 | 19.3 | 0.05 | 0.08 | 0.08 | 91 | 1019.7 |
| 20260903161550 | 13 | 246 | 8.0 | 17.7 | 0.00 | 0.03 | 0.03 | 93 | 1019.3 |
| 20260903160051 | 13 | 202 | 8.0 | 17.7 | 0.00 | 0.03 | 0.03 | 92 | 1018.8 |
| 20260903154559 | 13 | 200 | 8.0 | 29.0 | 0.00 | 0.00 | 0.00 | 90 | 1018.5 |
| 20260903153054 | 14 | 223 | 9.7 | 22.5 | 0.00 | 0.00 | 0.00 | 87 | 1018.3 |
| 20260903151549 | 15 | 205 | 8.0 | 22.5 | 0.00 | 0.00 | 0.00 | 85 | 1018.1 |
| 20260903150059 | 16 | 209 | 9.7 | 19.3 | 0.00 | 0.00 | 0.00 | 81 | 1018.1 |
| 20260903144607 | 16 | 235 | 6.4 | 14.5 | 0.00 | 0.00 | 0.00 | 81 | 1018.0 |
| 20260903143056 | 16 | 237 | 4.8 | 20.9 | 0.00 | 0.00 | 0.00 | 81 | 1017.7 |
| 20260903141555 | 16 | 230 | 8.0 | 16.1 | 0.00 | 0.00 | 0.00 | 81 | 1017.6 |
| 20260903134542 | 15 | 217 | 3.2 | 8.0 | 0.00 | 0.00 | 0.00 | 89 | 1017.2 |